Year,Month,Day,Hour,Minute,Value (Times are PST for temperature in C)
2016,11,21,00,00,9.70
2016,11,21,00,01,9.70
2016,11,21,00,02,9.70
2016,11,21,00,03,9.70
2016,11,21,00,04,9.70
2016,11,21,00,05,9.70
2016,11,21,00,06,9.70
2016,11,21,00,07,9.70
2016,11,21,00,08,9.70
2016,11,21,00,09,9.70
2016,11,21,00,10,9.70
2016,11,21,00,11,9.60
2016,11,21,00,12,9.60
2016,11,21,00,13,9.60
2016,11,21,00,14,9.60
2016,11,21,00,15,9.60
2016,11,21,00,16,9.60
2016,11,21,00,17,9.60
2016,11,21,00,18,9.60
2016,11,21,00,19,9.60
2016,11,21,00,20,9.70
2016,11,21,00,21,9.70
2016,11,21,00,22,9.70
2016,11,21,00,23,9.70
2016,11,21,00,24,9.70
2016,11,21,00,25,9.70
2016,11,21,00,26,9.70
2016,11,21,00,27,9.60
2016,11,21,00,28,9.60
2016,11,21,00,29,9.60
2016,11,21,00,30,9.60
2016,11,21,00,31,9.60
2016,11,21,00,32,9.60
2016,11,21,00,33,9.60
2016,11,21,00,34,9.60
2016,11,21,00,35,9.60
2016,11,21,00,36,9.60
2016,11,21,00,37,9.60
2016,11,21,00,38,9.60
2016,11,21,00,39,9.60
2016,11,21,00,40,9.60
2016,11,21,00,41,9.60
2016,11,21,00,42,9.60
2016,11,21,00,43,9.60
2016,11,21,00,44,9.50
2016,11,21,00,45,9.50
2016,11,21,00,46,9.50
2016,11,21,00,47,9.50
2016,11,21,00,48,9.60
2016,11,21,00,49,9.60
2016,11,21,00,50,9.60
2016,11,21,00,51,9.60
2016,11,21,00,52,9.60
2016,11,21,00,53,9.60
2016,11,21,00,54,9.60
2016,11,21,00,55,9.50
2016,11,21,00,56,9.50
2016,11,21,00,57,9.50
2016,11,21,00,58,9.50
2016,11,21,00,59,9.50
2016,11,21,01,00,9.40
2016,11,21,01,01,9.40
2016,11,21,01,02,9.40
2016,11,21,01,03,9.40
2016,11,21,01,04,9.40
2016,11,21,01,05,9.30
2016,11,21,01,06,9.30
2016,11,21,01,07,9.30
2016,11,21,01,08,9.30
2016,11,21,01,09,9.30
2016,11,21,01,10,9.30
2016,11,21,01,11,9.30
2016,11,21,01,12,9.30
2016,11,21,01,13,9.30
2016,11,21,01,14,9.30
2016,11,21,01,15,9.30
2016,11,21,01,16,9.30
2016,11,21,01,17,9.30
2016,11,21,01,18,9.30
2016,11,21,01,19,9.30
2016,11,21,01,20,9.30
2016,11,21,01,21,9.30
2016,11,21,01,22,9.30
2016,11,21,01,23,9.30
2016,11,21,01,24,9.30
2016,11,21,01,25,9.30
2016,11,21,01,26,9.30
2016,11,21,01,27,9.30
2016,11,21,01,28,9.30
2016,11,21,01,29,9.30
2016,11,21,01,30,9.30
2016,11,21,01,31,9.20
2016,11,21,01,32,9.20
2016,11,21,01,33,9.20
2016,11,21,01,34,9.20
2016,11,21,01,35,9.20
2016,11,21,01,36,9.20
2016,11,21,01,37,9.20
2016,11,21,01,38,9.20
2016,11,21,01,39,9.20
2016,11,21,01,40,9.20
2016,11,21,01,41,9.20
2016,11,21,01,42,9.20
2016,11,21,01,43,9.20
2016,11,21,01,44,9.20
2016,11,21,01,45,9.20
2016,11,21,01,46,9.20
2016,11,21,01,47,9.20
2016,11,21,01,48,9.20
2016,11,21,01,49,9.20
2016,11,21,01,50,9.20
2016,11,21,01,51,9.20
2016,11,21,01,52,9.20
2016,11,21,01,53,9.20
2016,11,21,01,54,9.20
2016,11,21,01,55,9.20
2016,11,21,01,56,9.20
2016,11,21,01,57,9.20
2016,11,21,01,58,9.20
2016,11,21,01,59,9.10
2016,11,21,02,00,9.10
2016,11,21,02,01,9.10
2016,11,21,02,02,9.10
2016,11,21,02,03,9.10
2016,11,21,02,04,9.10
2016,11,21,02,05,9.10
2016,11,21,02,06,9.10
2016,11,21,02,07,9.10
2016,11,21,02,08,9.10
2016,11,21,02,09,9.10
2016,11,21,02,10,9.10
2016,11,21,02,11,9.10
2016,11,21,02,12,9.10
2016,11,21,02,13,9.00
2016,11,21,02,14,9.00
2016,11,21,02,15,9.00
2016,11,21,02,16,9.00
2016,11,21,02,17,9.00
2016,11,21,02,18,9.00
2016,11,21,02,19,9.00
2016,11,21,02,20,9.00
2016,11,21,02,21,8.90
2016,11,21,02,22,8.90
2016,11,21,02,23,8.90
2016,11,21,02,24,8.90
2016,11,21,02,25,8.90
2016,11,21,02,26,8.90
2016,11,21,02,27,8.90
2016,11,21,02,28,8.90
2016,11,21,02,29,8.90
2016,11,21,02,30,8.90
2016,11,21,02,31,8.90
2016,11,21,02,32,8.90
2016,11,21,02,33,8.90
2016,11,21,02,34,8.90
2016,11,21,02,35,8.90
2016,11,21,02,36,8.90
2016,11,21,02,37,8.90
2016,11,21,02,38,8.90
2016,11,21,02,39,8.90
2016,11,21,02,40,8.90
2016,11,21,02,41,8.90
2016,11,21,02,42,8.90
2016,11,21,02,43,8.90
2016,11,21,02,44,8.90
2016,11,21,02,45,8.90
2016,11,21,02,46,8.80
2016,11,21,02,47,8.80
2016,11,21,02,48,8.80
2016,11,21,02,49,8.80
2016,11,21,02,50,8.80
2016,11,21,02,51,8.80
2016,11,21,02,52,8.80
2016,11,21,02,53,8.80
2016,11,21,02,54,8.80
2016,11,21,02,55,8.80
2016,11,21,02,56,8.70
2016,11,21,02,57,8.70
2016,11,21,02,58,8.70
2016,11,21,02,59,8.70
2016,11,21,03,00,8.70
2016,11,21,03,01,8.70
2016,11,21,03,02,8.70
2016,11,21,03,03,8.60
2016,11,21,03,04,8.60
2016,11,21,03,05,8.60
2016,11,21,03,06,8.60
2016,11,21,03,07,8.60
2016,11,21,03,08,8.60
2016,11,21,03,09,8.60
2016,11,21,03,10,8.60
2016,11,21,03,11,8.60
2016,11,21,03,12,8.60
2016,11,21,03,13,8.60
2016,11,21,03,14,8.60
2016,11,21,03,15,8.60
2016,11,21,03,16,8.60
2016,11,21,03,17,8.60
2016,11,21,03,18,8.50
2016,11,21,03,19,8.50
2016,11,21,03,20,8.50
2016,11,21,03,21,8.50
2016,11,21,03,22,8.50
2016,11,21,03,23,8.50
2016,11,21,03,24,8.50
2016,11,21,03,25,8.40
2016,11,21,03,26,8.40
2016,11,21,03,27,8.40
2016,11,21,03,28,8.40
2016,11,21,03,29,8.40
2016,11,21,03,30,8.40
2016,11,21,03,31,8.40
2016,11,21,03,32,8.40
2016,11,21,03,33,8.30
2016,11,21,03,34,8.30
2016,11,21,03,35,8.30
2016,11,21,03,36,8.30
2016,11,21,03,37,8.30
2016,11,21,03,38,8.30
2016,11,21,03,39,8.30
2016,11,21,03,40,8.30
2016,11,21,03,41,8.30
2016,11,21,03,42,8.20
2016,11,21,03,43,8.20
2016,11,21,03,44,8.20
2016,11,21,03,45,8.20
2016,11,21,03,46,8.20
2016,11,21,03,47,8.20
2016,11,21,03,48,8.20
2016,11,21,03,49,8.20
2016,11,21,03,50,8.20
2016,11,21,03,51,8.20
2016,11,21,03,52,8.20
2016,11,21,03,53,8.20
2016,11,21,03,54,8.20
2016,11,21,03,55,8.20
2016,11,21,03,56,8.20
2016,11,21,03,57,8.20
2016,11,21,03,58,8.20
2016,11,21,03,59,8.20
2016,11,21,04,00,8.20
2016,11,21,04,01,8.20
2016,11,21,04,02,8.20
2016,11,21,04,03,8.20
2016,11,21,04,04,8.20
2016,11,21,04,05,8.20
2016,11,21,04,06,8.20
2016,11,21,04,07,8.20
2016,11,21,04,08,8.20
2016,11,21,04,09,8.20
2016,11,21,04,10,8.20
2016,11,21,04,11,8.20
2016,11,21,04,12,8.20
2016,11,21,04,13,8.20
2016,11,21,04,14,8.20
2016,11,21,04,15,8.20
2016,11,21,04,16,8.30
2016,11,21,04,17,8.20
2016,11,21,04,18,8.30
2016,11,21,04,19,8.30
2016,11,21,04,20,8.30
2016,11,21,04,21,8.30
2016,11,21,04,22,8.30
2016,11,21,04,23,8.30
2016,11,21,04,24,8.40
2016,11,21,04,25,8.40
2016,11,21,04,26,8.40
2016,11,21,04,27,8.40
2016,11,21,04,28,8.40
2016,11,21,04,29,8.40
2016,11,21,04,30,8.40
2016,11,21,04,31,8.40
2016,11,21,04,32,8.40
2016,11,21,04,33,8.40
2016,11,21,04,34,8.30
2016,11,21,04,35,8.30
2016,11,21,04,36,8.30
2016,11,21,04,37,8.30
2016,11,21,04,38,8.30
2016,11,21,04,39,8.30
2016,11,21,04,40,8.30
2016,11,21,04,41,8.30
2016,11,21,04,42,8.30
2016,11,21,04,43,8.30
2016,11,21,04,44,8.30
2016,11,21,04,45,8.30
2016,11,21,04,46,8.30
2016,11,21,04,47,8.30
2016,11,21,04,48,8.30
2016,11,21,04,49,8.30
2016,11,21,04,50,8.30
2016,11,21,04,51,8.20
2016,11,21,04,52,8.20
2016,11,21,04,53,8.20
2016,11,21,04,54,8.20
2016,11,21,04,55,8.20
2016,11,21,04,56,8.20
2016,11,21,04,57,8.20
2016,11,21,04,58,8.20
2016,11,21,04,59,8.20
2016,11,21,05,00,8.20
2016,11,21,05,01,8.20
2016,11,21,05,02,8.10
2016,11,21,05,03,8.10
2016,11,21,05,04,8.10
2016,11,21,05,05,8.10
2016,11,21,05,06,8.10
2016,11,21,05,07,8.10
2016,11,21,05,08,8.10
2016,11,21,05,09,8.00
2016,11,21,05,10,8.00
2016,11,21,05,11,8.00
2016,11,21,05,12,8.00
2016,11,21,05,13,8.00
2016,11,21,05,14,8.00
2016,11,21,05,15,8.00
2016,11,21,05,16,8.00
2016,11,21,05,17,8.00
2016,11,21,05,18,8.00
2016,11,21,05,19,8.00
2016,11,21,05,20,8.00
2016,11,21,05,21,7.90
2016,11,21,05,22,7.90
2016,11,21,05,23,7.90
2016,11,21,05,24,7.90
2016,11,21,05,25,7.90
2016,11,21,05,26,7.90
2016,11,21,05,27,7.90
2016,11,21,05,28,7.90
2016,11,21,05,29,7.90
2016,11,21,05,30,7.90
2016,11,21,05,31,7.90
2016,11,21,05,32,7.90
2016,11,21,05,33,7.90
2016,11,21,05,34,7.90
2016,11,21,05,35,7.90
2016,11,21,05,36,7.90
2016,11,21,05,37,7.90
2016,11,21,05,38,7.90
2016,11,21,05,39,7.90
2016,11,21,05,40,7.90
2016,11,21,05,41,7.90
2016,11,21,05,42,7.90
2016,11,21,05,43,7.90
2016,11,21,05,44,7.90
2016,11,21,05,45,7.90
2016,11,21,05,46,7.90
2016,11,21,05,47,7.90
2016,11,21,05,48,7.90
2016,11,21,05,49,7.90
2016,11,21,05,50,7.90
2016,11,21,05,51,7.90
2016,11,21,05,52,7.90
2016,11,21,05,53,7.90
2016,11,21,05,54,7.90
2016,11,21,05,55,7.90
2016,11,21,05,56,7.90
2016,11,21,05,57,7.90
2016,11,21,05,58,7.90
2016,11,21,05,59,7.90
2016,11,21,06,00,7.90
2016,11,21,06,01,7.80
2016,11,21,06,02,7.80
2016,11,21,06,03,7.80
2016,11,21,06,04,7.80
2016,11,21,06,05,7.70
2016,11,21,06,06,7.70
2016,11,21,06,07,7.70
2016,11,21,06,08,7.60
2016,11,21,06,09,7.60
2016,11,21,06,10,7.60
2016,11,21,06,11,7.60
2016,11,21,06,12,7.60
2016,11,21,06,13,7.60
2016,11,21,06,14,7.50
2016,11,21,06,15,7.50
2016,11,21,06,16,7.50
2016,11,21,06,17,7.50
2016,11,21,06,18,7.40
2016,11,21,06,19,7.40
2016,11,21,06,20,7.40
2016,11,21,06,21,7.40
2016,11,21,06,22,7.30
2016,11,21,06,23,7.30
2016,11,21,06,24,7.30
2016,11,21,06,25,7.30
2016,11,21,06,26,7.30
2016,11,21,06,27,7.20
2016,11,21,06,28,7.20
2016,11,21,06,29,7.20
2016,11,21,06,30,7.20
2016,11,21,06,31,7.20
2016,11,21,06,32,7.20
2016,11,21,06,33,7.20
2016,11,21,06,34,7.20
2016,11,21,06,35,7.10
2016,11,21,06,36,7.10
2016,11,21,06,37,7.10
2016,11,21,06,38,7.00
2016,11,21,06,39,7.00
2016,11,21,06,40,7.00
2016,11,21,06,41,7.00
2016,11,21,06,42,6.90
2016,11,21,06,43,6.90
2016,11,21,06,44,6.90
2016,11,21,06,45,6.90
2016,11,21,06,46,6.90
2016,11,21,06,47,6.90
2016,11,21,06,48,6.90
2016,11,21,06,49,6.90
2016,11,21,06,50,7.00
2016,11,21,06,51,7.00
2016,11,21,06,52,7.00
2016,11,21,06,53,6.90
2016,11,21,06,54,6.90
2016,11,21,06,55,6.90
2016,11,21,06,56,6.90
2016,11,21,06,57,6.90
2016,11,21,06,58,6.90
2016,11,21,06,59,6.90
2016,11,21,07,00,6.80
2016,11,21,07,01,6.80
2016,11,21,07,02,6.80
2016,11,21,07,03,6.80
2016,11,21,07,04,6.80
2016,11,21,07,05,6.80
2016,11,21,07,06,6.80
2016,11,21,07,07,6.80
2016,11,21,07,08,6.80
2016,11,21,07,09,6.80
2016,11,21,07,10,6.80
2016,11,21,07,11,6.80
2016,11,21,07,12,6.80
2016,11,21,07,13,6.70
2016,11,21,07,14,6.70
2016,11,21,07,15,6.70
2016,11,21,07,16,6.70
2016,11,21,07,17,6.70
2016,11,21,07,18,6.60
2016,11,21,07,19,6.60
2016,11,21,07,20,6.60
2016,11,21,07,21,6.60
2016,11,21,07,22,6.60
2016,11,21,07,23,6.50
2016,11,21,07,24,6.50
2016,11,21,07,25,6.40
2016,11,21,07,26,6.40
2016,11,21,07,27,6.40
2016,11,21,07,28,6.40
2016,11,21,07,29,6.40
2016,11,21,07,30,6.40
2016,11,21,07,31,6.40
2016,11,21,07,32,6.40
2016,11,21,07,33,6.40
2016,11,21,07,34,6.40
2016,11,21,07,35,6.40
2016,11,21,07,36,6.40
2016,11,21,07,37,6.40
2016,11,21,07,38,6.40
2016,11,21,07,39,6.40
2016,11,21,07,40,6.40
2016,11,21,07,41,6.40
2016,11,21,07,42,6.40
2016,11,21,07,43,6.40
2016,11,21,07,44,6.40
2016,11,21,07,45,6.40
2016,11,21,07,46,6.30
2016,11,21,07,47,6.30
2016,11,21,07,48,6.30
2016,11,21,07,49,6.30
2016,11,21,07,50,6.30
2016,11,21,07,51,6.30
2016,11,21,07,52,6.30
2016,11,21,07,53,6.40
2016,11,21,07,54,6.40
2016,11,21,07,55,6.40
2016,11,21,07,56,6.40
2016,11,21,07,57,6.40
2016,11,21,07,58,6.40
2016,11,21,07,59,6.40
2016,11,21,08,00,6.40
2016,11,21,08,01,6.40
2016,11,21,08,02,6.40
2016,11,21,08,03,6.40
2016,11,21,08,04,6.40
2016,11,21,08,05,6.40
2016,11,21,08,06,6.40
2016,11,21,08,07,6.40
2016,11,21,08,08,6.40
2016,11,21,08,09,6.40
2016,11,21,08,10,6.40
2016,11,21,08,11,6.40
2016,11,21,08,12,6.40
2016,11,21,08,13,6.40
2016,11,21,08,14,6.40
2016,11,21,08,15,6.40
2016,11,21,08,16,6.40
2016,11,21,08,17,6.40
2016,11,21,08,18,6.40
2016,11,21,08,19,6.40
2016,11,21,08,20,6.40
2016,11,21,08,21,6.40
2016,11,21,08,22,6.40
2016,11,21,08,23,6.50
2016,11,21,08,24,6.50
2016,11,21,08,25,6.50
2016,11,21,08,26,6.50
2016,11,21,08,27,6.50
2016,11,21,08,28,6.50
2016,11,21,08,29,6.50
2016,11,21,08,30,6.50
2016,11,21,08,31,6.50
2016,11,21,08,32,6.50
2016,11,21,08,33,6.50
2016,11,21,08,34,6.50
2016,11,21,08,35,6.50
2016,11,21,08,36,6.50
2016,11,21,08,37,6.50
2016,11,21,08,38,6.50
2016,11,21,08,39,6.50
2016,11,21,08,40,6.50
2016,11,21,08,41,6.50
2016,11,21,08,42,6.50
2016,11,21,08,43,6.50
2016,11,21,08,44,6.50
2016,11,21,08,45,6.50
2016,11,21,08,46,6.50
2016,11,21,08,47,6.50
2016,11,21,08,48,6.50
2016,11,21,08,49,6.50
2016,11,21,08,50,6.50
2016,11,21,08,51,6.50
2016,11,21,08,52,6.50
2016,11,21,08,53,6.50
2016,11,21,08,54,6.50
2016,11,21,08,55,6.50
2016,11,21,08,56,6.50
2016,11,21,08,57,6.50
2016,11,21,08,58,6.50
2016,11,21,08,59,6.50
2016,11,21,09,00,6.50
2016,11,21,09,01,6.50
2016,11,21,09,02,6.60
2016,11,21,09,03,6.60
2016,11,21,09,04,6.60
2016,11,21,09,05,6.60
2016,11,21,09,06,6.60
2016,11,21,09,07,6.60
2016,11,21,09,08,6.60
2016,11,21,09,09,6.60
2016,11,21,09,10,6.60
2016,11,21,09,11,6.60
2016,11,21,09,12,6.60
2016,11,21,09,13,6.60
2016,11,21,09,14,6.60
2016,11,21,09,15,6.60
2016,11,21,09,16,6.60
2016,11,21,09,17,6.60
2016,11,21,09,18,6.60
2016,11,21,09,19,6.60
2016,11,21,09,20,6.50
2016,11,21,09,21,6.50
2016,11,21,09,22,6.50
2016,11,21,09,23,6.50
2016,11,21,09,24,6.50
2016,11,21,09,25,6.50
2016,11,21,09,26,6.50
2016,11,21,09,27,6.40
2016,11,21,09,28,6.50
2016,11,21,09,29,6.50
2016,11,21,09,30,6.50
2016,11,21,09,31,6.50
2016,11,21,09,32,6.50
2016,11,21,09,33,6.50
2016,11,21,09,34,6.50
2016,11,21,09,35,6.50
2016,11,21,09,36,6.50
2016,11,21,09,37,6.50
2016,11,21,09,38,6.50
2016,11,21,09,39,6.50
2016,11,21,09,40,6.50
2016,11,21,09,41,6.60
2016,11,21,09,42,6.50
2016,11,21,09,43,6.60
2016,11,21,09,44,6.60
2016,11,21,09,45,6.60
2016,11,21,09,46,6.60
2016,11,21,09,47,6.60
2016,11,21,09,48,6.60
2016,11,21,09,49,6.60
2016,11,21,09,50,6.60
2016,11,21,09,51,6.60
2016,11,21,09,52,6.60
2016,11,21,09,53,6.60
2016,11,21,09,54,6.60
2016,11,21,09,55,6.60
2016,11,21,09,56,6.70
2016,11,21,09,57,6.70
2016,11,21,09,58,6.70
2016,11,21,09,59,6.60
2016,11,21,10,00,6.70
2016,11,21,10,01,6.70
2016,11,21,10,02,6.70
2016,11,21,10,03,6.70
2016,11,21,10,04,6.70
2016,11,21,10,05,6.70
2016,11,21,10,06,6.70
2016,11,21,10,07,6.70
2016,11,21,10,08,6.70
2016,11,21,10,09,6.70
2016,11,21,10,10,6.70
2016,11,21,10,11,6.80
2016,11,21,10,12,6.80
2016,11,21,10,13,6.80
2016,11,21,10,14,6.80
2016,11,21,10,15,6.70
2016,11,21,10,16,6.70
2016,11,21,10,17,6.70
2016,11,21,10,18,6.70
2016,11,21,10,19,6.70
2016,11,21,10,20,6.70
2016,11,21,10,21,6.70
2016,11,21,10,22,6.60
2016,11,21,10,23,6.70
2016,11,21,10,24,6.70
2016,11,21,10,25,6.70
2016,11,21,10,26,6.70
2016,11,21,10,27,6.70
2016,11,21,10,28,6.70
2016,11,21,10,29,6.80
2016,11,21,10,30,6.80
2016,11,21,10,31,6.80
2016,11,21,10,32,6.80
2016,11,21,10,33,6.70
2016,11,21,10,34,6.70
2016,11,21,10,35,6.70
2016,11,21,10,36,6.70
2016,11,21,10,37,6.70
2016,11,21,10,38,6.70
2016,11,21,10,39,6.80
2016,11,21,10,40,6.80
2016,11,21,10,41,6.80
2016,11,21,10,42,6.80
2016,11,21,10,43,6.80
2016,11,21,10,44,6.80
2016,11,21,10,45,6.90
2016,11,21,10,46,6.90
2016,11,21,10,47,6.90
2016,11,21,10,48,6.90
2016,11,21,10,49,6.90
2016,11,21,10,50,6.90
2016,11,21,10,51,6.90
2016,11,21,10,52,6.90
2016,11,21,10,53,6.90
2016,11,21,10,54,6.80
2016,11,21,10,55,6.80
2016,11,21,10,56,6.80
2016,11,21,10,57,6.80
2016,11,21,10,58,6.80
2016,11,21,10,59,6.80
2016,11,21,11,00,6.80
2016,11,21,11,01,6.80
2016,11,21,11,02,6.80
2016,11,21,11,03,6.90
2016,11,21,11,04,6.90
2016,11,21,11,05,6.90
2016,11,21,11,06,6.90
2016,11,21,11,07,6.90
2016,11,21,11,08,6.90
2016,11,21,11,09,6.90
2016,11,21,11,10,6.90
2016,11,21,11,11,6.90
2016,11,21,11,12,6.80
2016,11,21,11,13,6.80
2016,11,21,11,14,6.80
2016,11,21,11,15,6.80
2016,11,21,11,16,6.80
2016,11,21,11,17,6.80
2016,11,21,11,18,6.80
2016,11,21,11,19,6.80
2016,11,21,11,20,6.90
2016,11,21,11,21,6.90
2016,11,21,11,22,6.90
2016,11,21,11,23,6.90
2016,11,21,11,24,6.90
2016,11,21,11,25,7.00
2016,11,21,11,26,7.00
2016,11,21,11,27,7.00
2016,11,21,11,28,7.10
2016,11,21,11,29,7.10
2016,11,21,11,30,7.10
2016,11,21,11,31,7.20
2016,11,21,11,32,7.20
2016,11,21,11,33,7.30
2016,11,21,11,34,7.30
2016,11,21,11,35,7.40
2016,11,21,11,36,7.40
2016,11,21,11,37,7.40
2016,11,21,11,38,7.40
2016,11,21,11,39,7.40
2016,11,21,11,40,7.40
2016,11,21,11,41,7.40
2016,11,21,11,42,7.30
2016,11,21,11,43,7.30
2016,11,21,11,44,7.20
2016,11,21,11,45,7.20
2016,11,21,11,46,7.20
2016,11,21,11,47,7.20
2016,11,21,11,48,7.10
2016,11,21,11,49,7.10
2016,11,21,11,50,7.10
2016,11,21,11,51,7.10
2016,11,21,11,52,7.10
2016,11,21,11,53,7.10
2016,11,21,11,54,7.10
2016,11,21,11,55,7.10
2016,11,21,11,56,7.10
2016,11,21,11,57,7.20
2016,11,21,11,58,7.20
2016,11,21,11,59,7.20
2016,11,21,12,00,7.30
2016,11,21,12,01,7.30
2016,11,21,12,02,7.40
2016,11,21,12,03,7.40
2016,11,21,12,04,7.40
2016,11,21,12,05,7.40
2016,11,21,12,06,7.50
2016,11,21,12,07,7.50
2016,11,21,12,08,7.60
2016,11,21,12,09,7.60
2016,11,21,12,10,7.70
2016,11,21,12,11,7.70
2016,11,21,12,12,7.70
2016,11,21,12,13,7.80
2016,11,21,12,14,7.80
2016,11,21,12,15,7.80
2016,11,21,12,16,7.90
2016,11,21,12,17,7.90
2016,11,21,12,18,8.00
2016,11,21,12,19,8.00
2016,11,21,12,20,8.10
2016,11,21,12,21,8.00
2016,11,21,12,22,8.00
2016,11,21,12,23,7.90
2016,11,21,12,24,7.90
2016,11,21,12,25,7.80
2016,11,21,12,26,7.80
2016,11,21,12,27,7.90
2016,11,21,12,28,7.90
2016,11,21,12,29,7.90
2016,11,21,12,30,7.90
2016,11,21,12,31,7.90
2016,11,21,12,32,7.90
2016,11,21,12,33,7.90
2016,11,21,12,34,8.00
2016,11,21,12,35,8.00
2016,11,21,12,36,8.10
2016,11,21,12,37,8.10
2016,11,21,12,38,8.10
2016,11,21,12,39,8.10
2016,11,21,12,40,8.10
2016,11,21,12,41,8.10
2016,11,21,12,42,8.10
2016,11,21,12,43,8.10
2016,11,21,12,44,8.10
2016,11,21,12,45,8.10
2016,11,21,12,46,8.10
2016,11,21,12,47,8.20
2016,11,21,12,48,8.20
2016,11,21,12,49,8.20
2016,11,21,12,50,8.30
2016,11,21,12,51,8.30
2016,11,21,12,52,8.40
2016,11,21,12,53,8.40
2016,11,21,12,54,8.50
2016,11,21,12,55,8.50
2016,11,21,12,56,8.60
2016,11,21,12,57,8.70
2016,11,21,12,58,8.80
2016,11,21,12,59,8.90
2016,11,21,13,00,8.90
2016,11,21,13,01,8.90
2016,11,21,13,02,8.90
2016,11,21,13,03,8.90
2016,11,21,13,04,8.80
2016,11,21,13,05,8.90
2016,11,21,13,06,8.80
2016,11,21,13,07,8.80
2016,11,21,13,08,8.90
2016,11,21,13,09,8.80
2016,11,21,13,10,8.80
2016,11,21,13,11,8.80
2016,11,21,13,12,8.80
2016,11,21,13,13,8.80
2016,11,21,13,14,8.80
2016,11,21,13,15,8.90
2016,11,21,13,16,8.90
2016,11,21,13,17,9.00
2016,11,21,13,18,9.00
2016,11,21,13,19,9.10
2016,11,21,13,20,9.20
2016,11,21,13,21,9.20
2016,11,21,13,22,9.20
2016,11,21,13,23,9.20
2016,11,21,13,24,9.20
2016,11,21,13,25,9.20
2016,11,21,13,26,9.20
2016,11,21,13,27,9.20
2016,11,21,13,28,9.20
2016,11,21,13,29,9.20
2016,11,21,13,30,9.10
2016,11,21,13,31,9.10
2016,11,21,13,32,9.10
2016,11,21,13,33,9.10
2016,11,21,13,34,9.00
2016,11,21,13,35,9.00
2016,11,21,13,36,8.90
2016,11,21,13,37,8.90
2016,11,21,13,38,8.90
2016,11,21,13,39,8.90
2016,11,21,13,40,8.90
2016,11,21,13,41,8.90
2016,11,21,13,42,8.90
2016,11,21,13,43,9.00
2016,11,21,13,44,9.10
2016,11,21,13,45,9.10
2016,11,21,13,46,9.10
2016,11,21,13,47,9.10
2016,11,21,13,48,9.20
2016,11,21,13,49,9.20
2016,11,21,13,50,9.20
2016,11,21,13,51,9.30
2016,11,21,13,52,9.30
2016,11,21,13,53,9.40
2016,11,21,13,54,9.50
2016,11,21,13,55,9.60
2016,11,21,13,56,9.70
2016,11,21,13,57,9.80
2016,11,21,13,58,9.80
2016,11,21,13,59,9.90
2016,11,21,14,00,10.00
2016,11,21,14,01,10.00
2016,11,21,14,02,10.10
2016,11,21,14,03,10.20
2016,11,21,14,04,10.30
2016,11,21,14,05,10.30
2016,11,21,14,06,10.40
2016,11,21,14,07,10.40
2016,11,21,14,08,10.40
2016,11,21,14,09,10.40
2016,11,21,14,10,10.40
2016,11,21,14,11,10.30
2016,11,21,14,12,10.30
2016,11,21,14,13,10.30
2016,11,21,14,14,10.30
2016,11,21,14,15,10.20
2016,11,21,14,16,10.10
2016,11,21,14,17,10.10
2016,11,21,14,18,10.00
2016,11,21,14,19,9.90
2016,11,21,14,20,9.90
2016,11,21,14,21,9.80
2016,11,21,14,22,9.80
2016,11,21,14,23,9.70
2016,11,21,14,24,9.60
2016,11,21,14,25,9.40
2016,11,21,14,26,9.30
2016,11,21,14,27,9.30
2016,11,21,14,28,9.20
2016,11,21,14,29,9.20
2016,11,21,14,30,9.20
2016,11,21,14,31,9.20
2016,11,21,14,32,9.30
2016,11,21,14,33,9.40
2016,11,21,14,34,9.40
2016,11,21,14,35,9.50
2016,11,21,14,36,9.60
2016,11,21,14,37,9.60
2016,11,21,14,38,9.60
2016,11,21,14,39,9.60
2016,11,21,14,40,9.60
2016,11,21,14,41,9.60
2016,11,21,14,42,9.50
2016,11,21,14,43,9.50
2016,11,21,14,44,9.50
2016,11,21,14,45,9.50
2016,11,21,14,46,9.50
2016,11,21,14,47,9.50
2016,11,21,14,48,9.50
2016,11,21,14,49,9.60
2016,11,21,14,50,9.60
2016,11,21,14,51,9.70
2016,11,21,14,52,9.70
2016,11,21,14,53,9.70
2016,11,21,14,54,9.80
2016,11,21,14,55,9.70
2016,11,21,14,56,9.70
2016,11,21,14,57,9.70
2016,11,21,14,58,9.70
2016,11,21,14,59,9.70
2016,11,21,15,00,9.70
2016,11,21,15,01,9.60
2016,11,21,15,02,9.60
2016,11,21,15,03,9.50
2016,11,21,15,04,9.40
2016,11,21,15,05,9.30
2016,11,21,15,06,9.30
2016,11,21,15,07,9.20
2016,11,21,15,08,9.20
2016,11,21,15,09,9.10
2016,11,21,15,10,9.10
2016,11,21,15,11,9.00
2016,11,21,15,12,9.00
2016,11,21,15,13,9.00
2016,11,21,15,14,8.90
2016,11,21,15,15,8.90
2016,11,21,15,16,8.90
2016,11,21,15,17,8.90
2016,11,21,15,18,8.80
2016,11,21,15,19,8.80
2016,11,21,15,20,8.80
2016,11,21,15,21,8.80
2016,11,21,15,22,8.80
2016,11,21,15,23,8.80
2016,11,21,15,24,8.80
2016,11,21,15,25,8.70
2016,11,21,15,26,8.70
2016,11,21,15,27,8.70
2016,11,21,15,28,8.70
2016,11,21,15,29,8.60
2016,11,21,15,30,8.60
2016,11,21,15,31,8.50
2016,11,21,15,32,8.50
2016,11,21,15,33,8.50
2016,11,21,15,34,8.40
2016,11,21,15,35,8.40
2016,11,21,15,36,8.40
2016,11,21,15,37,8.40
2016,11,21,15,38,8.40
2016,11,21,15,39,8.30
2016,11,21,15,40,8.30
2016,11,21,15,41,8.30
2016,11,21,15,42,8.30
2016,11,21,15,43,8.30
2016,11,21,15,44,8.30
2016,11,21,15,45,8.30
2016,11,21,15,46,8.30
2016,11,21,15,47,8.30
2016,11,21,15,48,8.30
2016,11,21,15,49,8.20
2016,11,21,15,50,8.20
2016,11,21,15,51,8.20
2016,11,21,15,52,8.20
2016,11,21,15,53,8.20
2016,11,21,15,54,8.20
2016,11,21,15,55,8.20
2016,11,21,15,56,8.20
2016,11,21,15,57,8.20
2016,11,21,15,58,8.20
2016,11,21,15,59,8.20
2016,11,21,16,00,8.10
2016,11,21,16,01,8.10
2016,11,21,16,02,8.10
2016,11,21,16,03,8.10
2016,11,21,16,04,8.10
2016,11,21,16,05,8.00
2016,11,21,16,06,8.00
2016,11,21,16,07,8.00
2016,11,21,16,08,7.90
2016,11,21,16,09,7.90
2016,11,21,16,10,7.80
2016,11,21,16,11,7.80
2016,11,21,16,12,7.80
2016,11,21,16,13,7.80
2016,11,21,16,14,7.70
2016,11,21,16,15,7.70
2016,11,21,16,16,7.70
2016,11,21,16,17,7.60
2016,11,21,16,18,7.60
2016,11,21,16,19,7.60
2016,11,21,16,20,7.50
2016,11,21,16,21,7.50
2016,11,21,16,22,7.50
2016,11,21,16,23,7.40
2016,11,21,16,24,7.40
2016,11,21,16,25,7.40
2016,11,21,16,26,7.40
2016,11,21,16,27,7.30
2016,11,21,16,28,7.30
2016,11,21,16,29,7.30
2016,11,21,16,30,7.30
2016,11,21,16,31,7.20
2016,11,21,16,32,7.20
2016,11,21,16,33,7.10
2016,11,21,16,34,7.10
2016,11,21,16,35,7.10
2016,11,21,16,36,7.00
2016,11,21,16,37,7.00
2016,11,21,16,38,7.00
2016,11,21,16,39,6.90
2016,11,21,16,40,6.90
2016,11,21,16,41,6.90
2016,11,21,16,42,6.80
2016,11,21,16,43,6.80
2016,11,21,16,44,6.80
2016,11,21,16,45,6.80
2016,11,21,16,46,6.80
2016,11,21,16,47,6.80
2016,11,21,16,48,6.70
2016,11,21,16,49,6.70
2016,11,21,16,50,6.70
2016,11,21,16,51,6.80
2016,11,21,16,52,6.80
2016,11,21,16,53,6.80
2016,11,21,16,54,6.80
2016,11,21,16,55,6.80
2016,11,21,16,56,6.80
2016,11,21,16,57,6.80
2016,11,21,16,58,6.80
2016,11,21,16,59,6.90
2016,11,21,17,00,6.90
2016,11,21,17,01,6.80
2016,11,21,17,02,6.80
2016,11,21,17,03,6.80
2016,11,21,17,04,6.70
2016,11,21,17,05,6.70
2016,11,21,17,06,6.70
2016,11,21,17,07,6.70
2016,11,21,17,08,6.70
2016,11,21,17,09,6.70
2016,11,21,17,10,6.70
2016,11,21,17,11,6.70
2016,11,21,17,12,6.70
2016,11,21,17,13,6.70
2016,11,21,17,14,6.70
2016,11,21,17,15,6.70
2016,11,21,17,16,6.70
2016,11,21,17,17,6.70
2016,11,21,17,18,6.70
2016,11,21,17,19,6.70
2016,11,21,17,20,6.70
2016,11,21,17,21,6.70
2016,11,21,17,22,6.70
2016,11,21,17,23,6.70
2016,11,21,17,24,6.70
2016,11,21,17,25,6.60
2016,11,21,17,26,6.60
2016,11,21,17,27,6.60
2016,11,21,17,28,6.60
2016,11,21,17,29,6.60
2016,11,21,17,30,6.60
2016,11,21,17,31,6.60
2016,11,21,17,32,6.60
2016,11,21,17,33,6.60
2016,11,21,17,34,6.60
2016,11,21,17,35,6.60
2016,11,21,17,36,6.40
2016,11,21,17,37,6.40
2016,11,21,17,38,6.40
2016,11,21,17,39,6.40
2016,11,21,17,40,6.40
2016,11,21,17,41,6.40
2016,11,21,17,42,6.40
2016,11,21,17,43,6.40
2016,11,21,17,44,6.30
2016,11,21,17,45,6.30
2016,11,21,17,46,6.20
2016,11,21,17,47,6.20
2016,11,21,17,48,6.20
2016,11,21,17,49,6.20
2016,11,21,17,50,6.10
2016,11,21,17,51,6.10
2016,11,21,17,52,6.10
2016,11,21,17,53,6.10
2016,11,21,17,54,6.00
2016,11,21,17,55,6.00
2016,11,21,17,56,6.00
2016,11,21,17,57,6.00
2016,11,21,17,58,6.00
2016,11,21,17,59,6.00
2016,11,21,18,00,6.00
2016,11,21,18,01,6.00
2016,11,21,18,02,6.00
2016,11,21,18,03,6.00
2016,11,21,18,04,6.00
2016,11,21,18,05,6.00